CW9414 Weather Reports


time (UTC)temp
F
wind
direction
speed
knots
gust
knots
rain 1hr
in
rain 24hr
in
rain mn
in
humidity
%
barometer
mb
20260906025436 83 163 0.0 1.7 0.00 0.00 0.06 76 1008.4
20260906024440 83 163 1.7 2.6 0.00 0.00 0.06 77 1008.1
20260906023440 83 163 0.0 1.7 0.00 0.00 0.06 77 1008.1
20260906022437 83 163 0.9 3.5 0.00 0.00 0.06 78 1007.8
20260906021437 83 163 0.0 0.0 0.00 0.00 0.06 78 1007.6
20260906020439 84 163 0.0 0.0 0.00 0.00 0.06 78 1007.6
20260906015436 84 163 0.0 0.0 0.00 0.00 0.06 78 1007.5
20260906014436 84 163 0.0 0.0 0.00 0.00 0.06 78 1007.5
20260906013436 84 163 0.0 0.0 0.00 0.00 0.06 78 1007.5
20260906012436 84 163 0.0 0.0 0.00 0.00 0.06 78 1007.2
20260906011436 84 163 0.0 0.0 0.00 0.00 0.06 77 1007.2
20260906010437 84 163 0.0 0.0 0.00 0.00 0.06 77 1007.2
20260906005436 85 163 0.0 0.0 0.00 0.00 0.06 77 1007.2
20260906004436 85 163 0.0 0.0 0.00 0.00 0.06 76 1007.3
20260906003436 85 163 0.0 0.0 0.00 0.00 0.06 77 1007.3
20260906002436 85 163 0.0 0.0 0.00 0.00 0.06 76 1007.6
20260906001436 86 163 0.0 0.0 0.00 0.00 0.06 75 1007.6
20260906000436 86 163 0.0 0.0 0.00 0.00 0.06 75 1007.6
20260905235439 86 163 0.0 0.0 0.00 0.00 0.06 75 1007.6
20260905234436 86 163 0.0 0.0 0.00 0.00 0.06 74 1007.7
20260905233436 86 163 0.0 0.0 0.00 0.00 0.06 74 1007.7
20260905232437 86 163 0.0 0.0 0.00 0.00 0.06 75 1007.6
20260905231436 85 163 0.0 0.0 0.00 0.00 0.06 77 1007.6
20260905230436 85 163 0.0 0.0 0.00 0.00 0.06 77 1007.6
20260905225436 85 163 0.0 0.0 0.00 0.00 0.06 77 1007.3
20260905224437 85 163 0.0 0.0 0.00 0.00 0.06 78 1007.2
20260905223436 84 163 0.0 0.0 0.00 0.00 0.06 78 1007.2
20260905222436 84 163 0.0 0.0 0.00 0.00 0.06 78 1007.2
20260905221436 84 163 0.0 0.0 0.00 0.00 0.06 77 1007.5
20260905220436 84 163 0.0 0.0 0.00 0.00 0.06 77 1007.5
20260905215436 84 163 0.0 0.0 0.00 0.00 0.06 75 1007.5
20260905213404 85 163 0.0 0.0 0.00 0.00 0.06 70 1007.6
20260905212405 87 163 0.0 0.9 0.00 0.00 0.05 68 1008.2
20260905211404 88 163 0.9 4.3 0.00 0.00 0.03 67 1008.1
20260905210405 90 150 0.0 3.5 0.00 0.00 0.03 62 1008.2
20260905205407 90 152 0.0 4.3 0.00 0.00 0.03 63 1007.7
20260905204405 91 159 0.0 2.6 0.00 0.00 0.03 66 1007.6
20260905203405 91 159 0.0 0.9 0.00 0.00 0.03 65 1007.6
20260905202405 91 159 0.0 1.7 0.00 0.00 0.03 61 1007.8
20260905201405 93 159 0.0 0.9 0.00 0.00 0.03 58 1008.1
20260905200408 95 158 0.9 1.7 0.00 0.00 0.01 54 1008.2
20260905195405 95 158 0.0 0.0 0.00 0.00 0.00 48 1008.1
20260905194404 95 158 0.0 1.7 0.00 0.00 0.00 46 1008.2
20260905193404 96 158 0.0 4.3 0.00 0.00 0.00 46 1008.2
20260905192404 96 108 0.9 1.7 0.00 0.00 0.00 45 1008.3
20260905191405 97 107 0.0 1.7 0.00 0.00 0.00 44 1008.6
20260905190404 97 111 0.0 1.7 0.00 0.00 0.00 44 1008.6
20260905185404 96 109 0.0 3.5 0.00 0.00 0.00 47 1008.7
20260905184404 95 34 0.0 1.7 0.00 0.00 0.00 49 1008.8
20260905183404 94 34 0.0 1.7 0.00 0.00 0.00 53 1008.8
20260905182404 93 34 0.0 1.7 0.00 0.00 0.00 53 1009.2
20260905181404 92 34 1.7 2.6 0.00 0.00 0.00 55 1009.7
20260905180405 91 33 0.0 2.6 0.00 0.00 0.00 56 1009.7
20260905175405 91 32 0.9 1.7 0.00 0.00 0.00 57 1009.8
20260905174404 92 32 0.0 2.6 0.00 0.00 0.00 56 1010.0
20260905173408 92 56 0.0 2.6 0.00 0.00 0.00 57 1010.0
20260905172407 92 56 0.9 2.6 0.00 0.00 0.00 59 1010.1
20260905171404 91 56 0.0 0.9 0.00 0.00 0.00 61 1010.2
20260905170404 90 56 0.0 0.0 0.00 0.00 0.00 62 1010.2
20260905165404 90 56 0.0 4.3 0.00 0.00 0.00 64 1010.3
20260905164404 90 153 0.0 2.6 0.00 0.00 0.00 62 1010.3
20260905163405 90 153 0.0 1.7 0.00 0.00 0.00 64 1010.3
20260905162407 89 153 0.0 2.6 0.00 0.00 0.00 67 1010.3
20260905161405 88 153 0.0 2.6 0.00 0.00 0.00 68 1010.3
20260905160404 87 153 0.0 1.7 0.00 0.00 0.00 71 1010.3
20260905155407 86 153 0.0 2.6 0.00 0.00 0.00 74 1010.3
20260905154404 85 153 0.9 2.6 0.00 0.00 0.00 79 1010.3
20260905153407 84 153 0.0 0.9 0.00 0.00 0.00 82 1010.3
20260905152404 83 152 0.0 0.9 0.00 0.00 0.00 85 1010.4
20260905151404 82 153 0.0 0.0 0.00 0.00 0.00 86 1010.4
20260905150404 82 153 0.0 0.9 0.00 0.00 0.00 88 1010.4
20260905145404 82 153 0.0 0.0 0.00 0.00 0.00 89 1010.2
20260905144404 82 153 0.0 0.0 0.00 0.00 0.00 90 1010.2
20260905143504 81 153 0.0 0.9 0.00 0.00 0.00 90 1010.2
20260905142504 81 153 0.0 0.0 0.00 0.00 0.00 90 1010.3
20260905141504 81 153 0.0 0.9 0.00 0.00 0.00 90 1010.2
20260905140504 80 152 0.0 0.0 0.00 0.00 0.00 90 1010.2
20260905135504 80 153 0.0 0.0 0.00 0.00 0.00 90 1010.1
20260905134507 80 153 0.0 0.0 0.00 0.00 0.00 90 1010.2
20260905133507 79 153 0.0 0.0 0.00 0.00 0.00 89 1010.2
20260905132504 79 152 0.0 0.0 0.00 0.00 0.00 89 1010.2
20260905131504 78 152 0.0 0.0 0.00 0.00 0.00 88 1009.8
20260905130504 78 152 0.0 0.0 0.00 0.00 0.00 87 1009.8
20260905125504 77 153 0.0 0.0 0.00 0.00 0.00 86 1009.7
20260905124504 77 153 0.0 0.0 0.00 0.00 0.00 86 1009.6
20260905123504 77 152 0.0 0.0 0.00 0.00 0.00 86 1009.6
20260905122504 77 152 0.0 0.0 0.00 0.00 0.00 86 1009.5
20260905121504 77 152 0.0 0.0 0.00 0.00 0.00 86 1009.2
20260905120504 77 152 0.0 0.0 0.00 0.00 0.00 86 1009.2
20260905115504 77 152 0.0 0.0 0.00 0.00 0.00 86 1009.1
20260905114504 77 152 0.0 0.0 0.00 0.00 0.00 86 1009.0
20260905113507 77 153 0.0 0.0 0.00 0.00 0.00 86 1009.0
20260905112504 77 153 0.0 0.0 0.00 0.00 0.00 85 1008.7
20260905111504 77 153 0.0 0.0 0.00 0.00 0.00 85 1008.6
20260905110504 78 152 0.0 0.0 0.00 0.00 0.00 85 1008.6
20260905105504 78 153 0.0 0.0 0.00 0.00 0.00 85 1008.6
20260905104503 78 152 0.0 0.0 0.00 0.00 0.00 84 1008.6
20260905103504 78 153 0.0 0.0 0.00 0.00 0.00 84 1008.6
20260905102503 78 152 0.0 0.0 0.00 0.00 0.00 84 1008.6
20260905101504 78 153 0.0 0.0 0.00 0.00 0.00 84 1008.6
20260905100504 78 153 0.0 0.0 0.00 0.00 0.00 84 1008.6
20260905095504 78 152 0.0 0.0 0.00 0.00 0.00 84 1008.6
20260905094503 78 153 0.0 0.0 0.00 0.00 0.00 83 1008.6
20260905093507 78 153 0.0 0.0 0.00 0.00 0.00 84 1008.6
20260905092503 79 152 0.0 0.0 0.00 0.00 0.00 84 1008.6
20260905091504 79 153 0.0 0.0 0.00 0.00 0.00 83 1008.6
20260905090504 79 153 0.0 0.0 0.00 0.00 0.00 83 1008.6
20260905085503 79 152 0.0 0.0 0.00 0.00 0.00 83 1008.4
20260905084504 79 153 0.0 0.0 0.00 0.00 0.00 83 1008.5
20260905083503 79 153 0.0 0.0 0.00 0.00 0.00 83 1008.5
20260905082504 79 153 0.0 0.0 0.00 0.00 0.00 83 1008.6
20260905081506 79 152 0.0 0.0 0.00 0.00 0.00 82 1008.6
20260905080503 80 153 0.0 0.0 0.00 0.00 0.00 83 1008.6
20260905075504 80 152 0.0 0.0 0.00 0.00 0.00 82 1008.6
20260905074504 80 152 0.0 0.0 0.00 0.00 0.00 82 1008.8
20260905073503 80 153 0.0 0.0 0.00 0.00 0.00 82 1008.8
20260905072503 80 152 0.0 0.0 0.00 0.00 0.00 82 1009.0
20260905071503 80 152 0.0 0.0 0.00 0.00 0.00 82 1009.1
20260905070503 81 153 0.0 0.0 0.00 0.00 0.00 82 1009.1
20260905065504 81 153 0.0 0.0 0.00 0.00 0.00 81 1009.0
20260905064503 81 153 0.0 0.0 0.00 0.00 0.00 81 1009.1
20260905063503 81 152 0.0 0.0 0.00 0.00 0.00 81 1009.1
20260905062504 81 153 0.0 0.0 0.00 0.00 0.00 81 1009.2
20260905061506 81 152 0.0 0.0 0.00 0.00 0.00 81 1009.3
20260905060504 81 153 0.0 0.0 0.00 0.00 0.00 81 1009.3
20260905055503 82 152 0.0 0.0 0.00 0.00 0.00 80 1009.2
20260905054504 82 153 0.0 0.0 0.00 0.00 0.00 80 1009.4
20260905053506 82 152 0.0 0.0 0.00 0.00 0.00 79 1009.4
20260905052507 82 153 0.0 0.0 0.00 0.00 0.00 79 1009.2
20260905051503 82 152 0.0 0.0 0.00 0.00 0.00 79 1009.2
20260905050504 82 152 0.0 0.0 0.00 0.00 0.16 79 1009.2
20260905045503 83 152 0.0 0.0 0.00 0.00 0.16 79 1009.3
20260905044503 83 153 0.0 0.0 0.00 0.00 0.16 79 1009.5
20260905043504 83 153 0.0 0.0 0.00 0.00 0.16 78 1009.5
20260905042503 83 152 0.0 0.9 0.00 0.00 0.16 78 1009.5
20260905041504 83 152 0.0 0.0 0.00 0.00 0.16 77 1009.6
20260905040505 84 153 0.0 0.9 0.00 0.00 0.16 77 1009.6
20260905035503 84 153 0.0 0.9 0.00 0.00 0.16 76 1009.7
20260905034504 84 153 0.0 0.9 0.00 0.00 0.16 76 1009.7
20260905033503 84 153 0.0 2.6 0.00 0.00 0.16 75 1009.7
20260905032504 84 153 0.0 2.6 0.00 0.00 0.16 75 1009.7
20260905031504 84 153 0.0 0.9 0.00 0.00 0.16 74 1009.7
20260905030504 84 153 0.0 2.6 0.00 0.00 0.16 74 1009.7
20260905025504 84 152 0.9 2.6 0.00 0.00 0.16 74 1009.6